#�ϑ�����,���ϕ���,���ϕ���,�ő啗��,�ő啗����������,�ő�u�ԕ���,�ő�u�ԕ�����������
#(�N����),(m/s)   ,(16����),(m/s)   ,(16����)        ,(m/s)       ,(16����)            
2015/10/8 0:01,2.2,1,2.3,15,3,4
2015/10/8 0:02,2.2,1,2.2,15,4.1,1
2015/10/8 0:03,2.4,1,2.4,1,5.4,16
2015/10/8 0:04,2.4,1,2.4,1,4.1,1
2015/10/8 0:05,2.5,1,2.5,1,3.7,13
2015/10/8 0:06,2.5,1,2.5,1,5.2,16
2015/10/8 0:07,2.3,1,2.5,1,5.8,15
2015/10/8 0:08,2.3,1,2.3,1,7.8,15
2015/10/8 0:09,2.2,2,2.3,1,4.5,16
2015/10/8 0:10,2.3,2,2.3,1,6.4,1
2015/10/8 0:11,2.4,1,2.4,1,3.9,1
2015/10/8 0:12,2.3,1,2.4,1,2.4,15
2015/10/8 0:13,2.5,1,2.5,1,8.1,1
2015/10/8 0:14,2.7,1,2.7,1,4.9,16
2015/10/8 0:15,2.5,1,2.7,1,4.1,16
2015/10/8 0:16,2.3,1,2.5,1,1.4,4
2015/10/8 0:17,2.2,1,2.3,1,2.4,4
2015/10/8 0:18,2.1,1,2.1,1,2.5,3
2015/10/8 0:19,1.9,1,2,1,2.4,5
2015/10/8 0:20,1.7,1,1.8,1,3.6,2
2015/10/8 0:21,1.8,1,1.8,1,4.1,16
2015/10/8 0:22,1.8,1,1.8,1,3.9,15
2015/10/8 0:23,1.6,16,1.8,1,4.2,16
2015/10/8 0:24,1.5,1,1.6,1,3.2,15
2015/10/8 0:25,1.7,16,1.7,1,5.4,14
2015/10/8 0:26,2,16,2,1,6.2,15
2015/10/8 0:27,2.2,16,2.2,16,5,1
2015/10/8 0:28,2.3,16,2.3,16,5.2,3
2015/10/8 0:29,2.5,16,2.5,16,5.1,3
2015/10/8 0:30,2.5,15,2.5,16,2.5,9
2015/10/8 0:31,2.4,16,2.5,16,2.6,1
2015/10/8 0:32,2.5,16,2.5,16,3.6,2
2015/10/8 0:33,2.4,16,2.5,16,4.1,16
2015/10/8 0:34,2.3,1,2.4,16,3,2
2015/10/8 0:35,2.3,1,2.4,16,3.5,1
2015/10/8 0:36,2,1,2.2,16,2.1,15
2015/10/8 0:37,1.8,1,2,16,3.3,4
2015/10/8 0:38,1.7,1,1.8,16,2.5,9
2015/10/8 0:39,1.4,16,1.7,16,1.6,15
2015/10/8 0:40,1.4,2,1.4,15,2.2,3
2015/10/8 0:41,1.4,2,1.5,16,2.6,4
2015/10/8 0:42,1.2,2,1.4,16,3,2
2015/10/8 0:43,1.1,3,1.2,16,2.5,2
2015/10/8 0:44,1.2,5,1.2,1,3.8,10
2015/10/8 0:45,1.1,5,1.2,1,3.1,8
2015/10/8 0:46,1.2,6,1.2,1,3.2,8
2015/10/8 0:47,1.3,3,1.3,1,4.7,15
2015/10/8 0:48,1.3,3,1.3,1,2.6,15
2015/10/8 0:49,1.4,1,1.4,2,3.2,14
2015/10/8 0:50,1.3,15,1.4,2,2.5,14
2015/10/8 0:51,1.4,16,1.4,2,3.2,2
2015/10/8 0:52,1.6,16,1.6,16,4.3,1
2015/10/8 0:53,1.8,16,1.8,16,6.5,1
2015/10/8 0:54,1.8,1,1.8,16,3.7,15
2015/10/8 0:55,1.8,16,1.8,16,2,16
2015/10/8 0:56,1.9,16,1.9,16,6.4,15
2015/10/8 0:57,2,16,2,16,6.4,14
2015/10/8 0:58,2,16,2,16,2.5,16
2015/10/8 0:59,2.1,16,2.1,16,5.8,15
2015/10/8 1:00,2.5,16,2.5,16,6.4,15
2015/10/8 1:01,2.7,16,2.7,16,6.2,14
2015/10/8 1:02,2.8,16,2.8,16,5.1,16
2015/10/8 1:03,2.7,16,2.8,16,2.6,1
2015/10/8 1:04,2.8,16,2.8,16,6.4,1
2015/10/8 1:05,3,16,3,16,5.8,16
2015/10/8 1:06,3.1,16,3.1,16,6.2,16
2015/10/8 1:07,2.9,16,3,16,2.7,16
2015/10/8 1:08,2.9,16,2.9,16,1.9,12
2015/10/8 1:09,2.7,16,2.8,16,2.7,14
2015/10/8 1:10,2.4,16,2.6,16,4.7,16
2015/10/8 1:11,2.3,16,2.4,16,5.4,16
2015/10/8 1:12,2.2,15,2.3,16,4.1,15
2015/10/8 1:13,2.2,15,2.2,16,3.7,15
2015/10/8 1:14,2.3,15,2.3,16,5.5,15
2015/10/8 1:15,2.2,15,2.3,16,5,16
2015/10/8 1:16,2.2,15,2.2,16,6.7,16
2015/10/8 1:17,2.1,15,2.2,16,3.2,1
2015/10/8 1:18,2.2,16,2.2,16,3.7,16
2015/10/8 1:19,2.2,16,2.2,16,2.9,2
2015/10/8 1:20,2.2,16,2.2,16,2.7,2
2015/10/8 1:21,2.1,1,2.2,16,3.5,3
2015/10/8 1:22,1.9,1,2.1,15,1.6,6
2015/10/8 1:23,1.9,2,1.9,15,3.5,5
2015/10/8 1:24,1.8,2,1.9,15,5.1,4
2015/10/8 1:25,1.9,3,1.9,15,5.8,3
2015/10/8 1:26,1.7,3,1.9,15,2.7,2
2015/10/8 1:27,1.7,3,1.7,15,2.9,7
2015/10/8 1:28,1.7,4,1.7,16,3,7
2015/10/8 1:29,1.7,4,1.7,16,2.7,7
2015/10/8 1:30,1.7,4,1.7,16,2.9,6
2015/10/8 1:31,1.7,4,1.7,1,3.7,2
2015/10/8 1:32,1.9,5,1.9,1,4.1,4
2015/10/8 1:33,1.9,4,2,4,2.9,3
2015/10/8 1:34,1.8,4,1.9,4,0.9,2
2015/10/8 1:35,1.5,4,1.7,4,1.9,1
2015/10/8 1:36,1.5,3,1.5,4,2,15
2015/10/8 1:37,1.5,3,1.5,4,1.6,16
2015/10/8 1:38,1.5,2,1.5,4,1.6,13
2015/10/8 1:39,1.5,2,1.5,4,2.4,11
2015/10/8 1:40,1.5,1,1.5,4,2.5,10
2015/10/8 1:41,1.4,16,1.5,4,3.2,10
2015/10/8 1:42,1.4,14,1.4,4,5.4,12
2015/10/8 1:43,1.6,13,1.6,4,6.2,12
2015/10/8 1:44,1.6,13,1.6,4,2.4,10
2015/10/8 1:45,1.7,12,1.7,12,3.3,8
2015/10/8 1:46,1.8,11,1.8,11,3.1,9
2015/10/8 1:47,1.8,11,1.8,11,1.9,11
2015/10/8 1:48,1.8,11,1.9,11,3.2,2
2015/10/8 1:49,1.8,11,1.8,11,2.4,2
2015/10/8 1:50,2,12,2,12,6.1,15
2015/10/8 1:51,2.1,13,2.1,13,4.9,2
2015/10/8 1:52,2.2,14,2.2,13,4.9,16
2015/10/8 1:53,2.2,15,2.2,13,5.5,14
2015/10/8 1:54,2.4,15,2.4,15,5,15
2015/10/8 1:55,2.5,16,2.5,15,4.1,16
2015/10/8 1:56,2.4,16,2.5,15,3,2
2015/10/8 1:57,2.4,16,2.4,15,1.9,12
2015/10/8 1:58,2.4,15,2.4,15,2.4,14
2015/10/8 1:59,2.4,15,2.4,15,2.5,14
2015/10/8 2:00,2.1,15,2.4,15,2.9,12
2015/10/8 2:01,2.2,15,2.2,15,5.7,3
2015/10/8 2:02,2.2,16,2.2,15,4.4,3
2015/10/8 2:03,2.1,16,2.1,15,5,4
2015/10/8 2:04,2,1,2.1,15,3.3,6
2015/10/8 2:05,1.8,2,1.9,16,1.5,7
2015/10/8 2:06,1.8,2,1.8,16,1.4,2
2015/10/8 2:07,2,3,2,16,5,1
2015/10/8 2:08,2,3,2,15,4.2,2
2015/10/8 2:09,1.9,3,2,15,2.4,3
2015/10/8 2:10,2,3,2,15,3.7,3
2015/10/8 2:11,1.8,4,2,15,1.9,4
2015/10/8 2:12,1.6,4,1.8,16,0.6,10
2015/10/8 2:13,1.4,4,1.6,1,2.4,10
2015/10/8 2:14,1.4,4,1.4,3,2.5,10
2015/10/8 2:15,1.6,12,1.6,3,3.1,12
2015/10/8 2:16,1.6,11,1.7,3,3.2,12
2015/10/8 2:17,1.6,10,1.6,3,3.2,11
2015/10/8 2:18,1.6,11,1.6,3,3.5,10
2015/10/8 2:19,1.6,10,1.6,3,3,11
2015/10/8 2:20,1.8,11,1.8,3,9.3,14
2015/10/8 2:21,1.8,11,1.8,4,2.7,1
2015/10/8 2:22,2,11,2,11,4.2,16
2015/10/8 2:23,2.1,12,2.1,11,3.6,2
2015/10/8 2:24,2,12,2.1,11,3,8
2015/10/8 2:25,2,13,2,11,3.7,3
2015/10/8 2:26,2.1,16,2.1,11,7.4,16
2015/10/8 2:27,2.4,16,2.4,16,6.5,15
2015/10/8 2:28,2.7,16,2.7,16,7.8,15
2015/10/8 2:29,3.1,16,3.1,16,8.9,16
2015/10/8 2:30,3.3,16,3.3,16,9.2,15
2015/10/8 2:31,3.5,16,3.5,16,8.7,15
2015/10/8 2:32,3.6,16,3.6,16,6,15
2015/10/8 2:33,3.6,16,3.6,16,3.2,16
2015/10/8 2:34,3.6,16,3.6,16,3,15
2015/10/8 2:35,3.7,15,3.7,16,5.6,14
2015/10/8 2:36,3.5,15,3.7,16,3.8,16
2015/10/8 2:37,3.3,15,3.5,16,3.9,15
2015/10/8 2:38,3.1,15,3.3,16,3.7,16
2015/10/8 2:39,2.6,15,3,16,2.7,14
2015/10/8 2:40,2.2,15,2.6,16,3.3,16
2015/10/8 2:41,2.1,15,2.2,16,3.8,13
2015/10/8 2:42,2.1,15,2.1,16,5.1,14
2015/10/8 2:43,2.1,15,2.1,16,3.9,13
2015/10/8 2:44,2.2,14,2.2,16,4.5,16
2015/10/8 2:45,2.3,15,2.3,15,6.1,16
2015/10/8 2:46,2.3,15,2.3,15,3.3,2
2015/10/8 2:47,2.5,15,2.5,15,5,15
2015/10/8 2:48,2.6,15,2.6,15,4.2,15
2015/10/8 2:49,2.6,15,2.6,15,3,1
2015/10/8 2:50,2.5,15,2.6,15,1.8,10
2015/10/8 2:51,2.3,15,2.5,15,1.4,4
2015/10/8 2:52,2,15,2.3,15,1,12
2015/10/8 2:53,1.8,16,2,15,1.5,2
2015/10/8 2:54,1.8,16,1.8,15,2,2
2015/10/8 2:55,1.5,16,1.7,15,2,2
2015/10/8 2:56,1.4,1,1.5,15,1.5,3
2015/10/8 2:57,1.1,1,1.4,15,0.9,3
2015/10/8 2:58,0.8,2,1.1,15,0.1,6
2015/10/8 2:59,0.7,3,0.8,15,0.1,6
2015/10/8 3:00,0.6,4,0.7,15,0.6,10
2015/10/8 3:01,0.7,4,0.7,15,2.5,11
2015/10/8 3:02,0.9,5,0.9,15,3.5,11
2015/10/8 3:03,1.1,6,1.1,16,4.2,10
2015/10/8 3:04,1.2,7,1.2,16,3.7,12
2015/10/8 3:05,1.2,8,1.2,16,2.6,13
2015/10/8 3:06,1.3,9,1.3,1,2.4,11
2015/10/8 3:07,1.5,10,1.5,10,3.1,13
2015/10/8 3:08,1.6,10,1.6,10,2.6,7
2015/10/8 3:09,1.7,11,1.7,11,2.2,8
2015/10/8 3:10,1.7,11,1.7,11,1.5,6
2015/10/8 3:11,1.7,11,1.7,11,3,16
2015/10/8 3:12,1.7,12,1.7,11,2.9,1
2015/10/8 3:13,1.6,13,1.7,11,3.7,16
2015/10/8 3:14,1.5,14,1.6,11,2.1,15
2015/10/8 3:15,1.6,15,1.6,11,3.1,15
2015/10/8 3:16,1.5,15,1.6,11,2.6,1
2015/10/8 3:17,1.4,16,1.5,11,1.3,2
2015/10/8 3:18,1.3,16,1.3,11,1.3,12
2015/10/8 3:19,1.3,15,1.3,11,1.9,14
2015/10/8 3:20,1.5,15,1.5,11,3.8,14
2015/10/8 3:21,1.5,14,1.5,11,3.3,13
2015/10/8 3:22,1.6,14,1.6,12,4.7,14
2015/10/8 3:23,1.7,14,1.7,14,4.8,14
2015/10/8 3:24,2,14,2,14,6.7,14
2015/10/8 3:25,2,14,2.1,14,3.7,15
2015/10/8 3:26,2.2,14,2.2,14,4.7,15
2015/10/8 3:27,2.5,14,2.5,14,4.9,1
2015/10/8 3:28,2.8,14,2.8,14,4.9,15
2015/10/8 3:29,3,15,3,15,4.7,15
2015/10/8 3:30,2.9,15,3,15,3,14
2015/10/8 3:31,2.7,15,2.8,15,2.2,16
2015/10/8 3:32,2.5,15,2.7,15,2.5,1
2015/10/8 3:33,2.3,15,2.5,15,2.7,15
2015/10/8 3:34,2,15,2.3,15,2.7,15
2015/10/8 3:35,2.1,15,2.1,15,5.7,16
2015/10/8 3:36,2.1,15,2.1,15,4.5,1
2015/10/8 3:37,1.9,15,2,15,3.7,11
2015/10/8 3:38,1.7,15,1.9,15,3,14
2015/10/8 3:39,1.7,15,1.7,15,4.8,15
2015/10/8 3:40,1.9,15,1.9,15,6.5,15
2015/10/8 3:41,2.1,15,2.1,15,4.7,15
2015/10/8 3:42,2.5,15,2.5,15,7.5,14
2015/10/8 3:43,2.7,15,2.7,15,6.5,15
2015/10/8 3:44,3,15,3,15,5.8,15
2015/10/8 3:45,2.9,15,3,15,2.6,14
2015/10/8 3:46,2.8,15,2.8,15,6.3,14
2015/10/8 3:47,3.1,14,3.1,14,6.8,14
2015/10/8 3:48,3.3,15,3.3,15,6.2,14
2015/10/8 3:49,3.3,14,3.3,15,3.2,13
2015/10/8 3:50,3.3,14,3.4,14,5.2,13
2015/10/8 3:51,3.4,14,3.5,14,5.5,13
2015/10/8 3:52,3.1,14,3.4,14,3.3,15
2015/10/8 3:53,3,14,3.1,14,4.4,16
2015/10/8 3:54,2.9,14,3,14,4.4,14
2015/10/8 3:55,3,14,3,14,3.1,12
2015/10/8 3:56,2.9,14,3,14,1.8,1
2015/10/8 3:57,2.7,14,2.9,14,7.2,16
2015/10/8 3:58,2.6,14,2.7,14,5.6,15
2015/10/8 3:59,2.7,14,2.7,14,4.8,15
2015/10/8 4:00,2.7,14,2.7,14,4.9,14
2015/10/8 4:01,2.5,15,2.7,14,4.1,1
2015/10/8 4:02,2.6,15,2.6,14,4.4,15
2015/10/8 4:03,2.6,15,2.6,14,7,14
2015/10/8 4:04,2.7,15,2.7,14,8.5,14
2015/10/8 4:05,2.8,15,2.8,14,4.2,16
2015/10/8 4:06,3,15,3,15,4.1,15
2015/10/8 4:07,3,15,3,15,5.1,15
2015/10/8 4:08,2.9,15,3,15,4.5,15
2015/10/8 4:09,2.8,15,2.9,15,4.5,15
2015/10/8 4:10,2.6,15,2.8,15,2.5,13
2015/10/8 4:11,2.6,14,2.6,15,3.1,11
2015/10/8 4:12,2.6,14,2.7,15,3.8,11
2015/10/8 4:13,2.6,14,2.7,15,4.4,15
2015/10/8 4:14,2.6,14,2.6,15,5,15
2015/10/8 4:15,2.6,14,2.6,15,4.7,15
2015/10/8 4:16,2.6,14,2.6,15,4.2,12
2015/10/8 4:17,2.5,14,2.6,15,3,15
2015/10/8 4:18,2.4,14,2.5,15,2.7,14
2015/10/8 4:19,2.4,14,2.4,15,3.6,13
2015/10/8 4:20,2.5,14,2.5,14,4.1,11
2015/10/8 4:21,2.5,14,2.5,14,3.3,11
2015/10/8 4:22,2.4,14,2.5,14,3.8,11
2015/10/8 4:23,2.5,14,2.5,14,5,13
2015/10/8 4:24,2.4,14,2.4,14,4.4,14
2015/10/8 4:25,2.3,14,2.3,14,4.2,15
2015/10/8 4:26,2.4,14,2.4,14,6.1,15
2015/10/8 4:27,2.5,14,2.5,14,4.4,14
2015/10/8 4:28,2.5,14,2.5,14,4.4,16
2015/10/8 4:29,2.6,14,2.6,14,4.3,15
2015/10/8 4:30,2.6,15,2.6,14,4.9,16
2015/10/8 4:31,2.7,15,2.7,15,3.2,15
2015/10/8 4:32,2.8,15,2.8,15,3.2,16
2015/10/8 4:33,2.6,15,2.7,15,3.7,15
2015/10/8 4:34,2.6,15,2.6,15,3.5,14
2015/10/8 4:35,2.7,15,2.7,15,4.7,16
2015/10/8 4:36,2.7,15,2.7,15,5.8,16
2015/10/8 4:37,2.7,15,2.8,15,5.5,14
2015/10/8 4:38,2.9,15,2.9,15,6,15
2015/10/8 4:39,2.9,15,2.9,15,4.8,15
2015/10/8 4:40,3,15,3,15,8.6,16
2015/10/8 4:41,3.2,15,3.2,15,6.3,15
2015/10/8 4:42,3.3,15,3.3,15,5.4,15
2015/10/8 4:43,3.3,15,3.3,15,5,15
2015/10/8 4:44,3.7,15,3.7,15,9.3,16
2015/10/8 4:45,3.9,15,4,15,8.5,16
2015/10/8 4:46,3.8,16,3.9,15,3.8,4
2015/10/8 4:47,3.6,16,3.8,15,2.5,8
2015/10/8 4:48,3.5,16,3.5,15,3.9,8
2015/10/8 4:49,3.4,16,3.5,15,3.9,9
2015/10/8 4:50,3.2,15,3.4,15,3.6,9
2015/10/8 4:51,3,9,3.1,15,2.7,9
2015/10/8 4:52,2.8,8,3,15,1.9,10
2015/10/8 4:53,2.6,8,2.7,15,2,7
2015/10/8 4:54,2.1,8,2.5,15,2.6,8
2015/10/8 4:55,1.7,8,2,15,2.1,8
2015/10/8 4:56,1.6,9,1.7,16,2,9
2015/10/8 4:57,1.7,9,1.7,16,2.2,10
2015/10/8 4:58,1.7,9,1.7,16,2.7,9
2015/10/8 4:59,1.6,9,1.7,16,2.1,9
2015/10/8 5:00,1.5,9,1.6,15,2.4,9
2015/10/8 5:01,1.5,9,1.5,9,2.7,9
2015/10/8 5:02,1.5,9,1.5,8,2.5,9
2015/10/8 5:03,1.6,9,1.6,8,3,8
2015/10/8 5:04,1.6,9,1.6,8,2.2,9
2015/10/8 5:05,1.6,9,1.6,8,1.6,10
2015/10/8 5:06,1.7,9,1.7,9,2.4,9
2015/10/8 5:07,1.6,9,1.7,9,2.4,9
2015/10/8 5:08,1.4,9,1.6,9,1,7
2015/10/8 5:09,1.4,9,1.4,9,1.4,9
2015/10/8 5:10,1.4,9,1.4,9,3,8
2015/10/8 5:11,1.4,9,1.4,9,3,10
2015/10/8 5:12,1.4,9,1.4,9,2,10
2015/10/8 5:13,1.3,9,1.4,9,1.9,10
2015/10/8 5:14,1.2,10,1.3,9,1.8,10
2015/10/8 5:15,1.3,10,1.3,9,2.4,10
2015/10/8 5:16,1.3,10,1.3,9,1.9,11
2015/10/8 5:17,1.3,10,1.3,9,1.9,12
2015/10/8 5:18,1.4,10,1.4,9,1.5,12
2015/10/8 5:19,1.4,11,1.4,9,1.4,12
2015/10/8 5:20,1.3,11,1.4,9,1.3,13
2015/10/8 5:21,1.2,11,1.3,9,1.1,3
2015/10/8 5:22,1.1,12,1.2,9,0.9,3
2015/10/8 5:23,1.1,12,1.1,10,0.6,16
2015/10/8 5:24,1,12,1.1,10,0.4,9
2015/10/8 5:25,0.9,13,1,10,1,1
2015/10/8 5:26,0.8,14,0.8,10,1.4,14
2015/10/8 5:27,0.7,14,0.8,10,1.3,12
2015/10/8 5:28,0.7,14,0.7,10,2.1,11
2015/10/8 5:29,0.9,15,0.9,11,3.7,11
2015/10/8 5:30,1,13,1,11,3.8,13
2015/10/8 5:31,1.2,13,1.2,11,3.3,14
2015/10/8 5:32,1.4,13,1.4,13,5.5,16
2015/10/8 5:33,1.6,13,1.6,13,4.9,15
2015/10/8 5:34,2,14,2,14,6.4,15
2015/10/8 5:35,2.4,14,2.4,14,6,15
2015/10/8 5:36,2.7,14,2.7,14,6,16
2015/10/8 5:37,2.9,14,2.9,14,7.2,15
2015/10/8 5:38,3.2,14,3.2,14,6.7,1
2015/10/8 5:39,3.3,15,3.3,14,4.9,14
2015/10/8 5:40,3.4,15,3.4,15,4.8,15
2015/10/8 5:41,3.6,15,3.6,15,6.5,15
2015/10/8 5:42,3.7,15,3.7,15,5.1,14
2015/10/8 5:43,3.7,15,3.7,15,4.1,14
2015/10/8 5:44,3.6,15,3.7,15,3.7,15
2015/10/8 5:45,3.3,15,3.6,15,3.2,15
2015/10/8 5:46,3.1,15,3.3,15,2.5,16
2015/10/8 5:47,2.9,15,3.1,15,2.5,14
2015/10/8 5:48,2.7,15,2.9,15,2.1,14
2015/10/8 5:49,2.4,15,2.6,15,2.1,12
2015/10/8 5:50,2.3,15,2.4,15,2.2,15
2015/10/8 5:51,1.9,15,2.2,15,1.5,13
2015/10/8 5:52,1.7,14,1.9,15,1.5,12
2015/10/8 5:53,1.5,14,1.6,15,2.7,16
2015/10/8 5:54,1.4,15,1.5,15,2.5,16
2015/10/8 5:55,1.2,15,1.4,15,1.9,6
2015/10/8 5:56,1.2,14,1.2,15,2.5,6
2015/10/8 5:57,1.1,14,1.2,15,1.3,8
2015/10/8 5:58,1,14,1.1,15,1,10
2015/10/8 5:59,1.1,14,1.1,15,2.5,13
2015/10/8 6:00,1.1,14,1.1,15,1.8,14
2015/10/8 6:01,1.1,14,1.1,15,1.9,15
2015/10/8 6:02,1.1,14,1.1,14,1.8,13
2015/10/8 6:03,1,13,1.1,14,1.6,14
2015/10/8 6:04,1,13,1,15,1.6,14
2015/10/8 6:05,1.1,13,1.1,15,2.5,13
2015/10/8 6:06,1,13,1.1,14,2,12
2015/10/8 6:07,1.1,14,1.1,14,3.9,11
2015/10/8 6:08,1.2,13,1.2,13,3.2,12
2015/10/8 6:09,1.3,13,1.3,14,3.7,12
2015/10/8 6:10,1.5,13,1.5,13,4.1,15
2015/10/8 6:11,1.7,13,1.7,13,4.5,15
2015/10/8 6:12,1.9,13,1.9,13,4.8,14
2015/10/8 6:13,2,14,2,13,4.4,12
2015/10/8 6:14,2.3,14,2.3,14,7.6,15
2015/10/8 6:15,2.5,14,2.5,14,4.9,15
2015/10/8 6:16,2.7,14,2.7,14,5.2,15
2015/10/8 6:17,2.9,14,2.9,14,5.1,15
2015/10/8 6:18,3,14,3,14,4.5,15
2015/10/8 6:19,2.9,15,3,14,4.1,16
2015/10/8 6:20,2.9,15,2.9,14,5,15
2015/10/8 6:21,2.9,15,2.9,14,4.7,14
2015/10/8 6:22,3,15,3,14,4.7,13
2015/10/8 6:23,3,14,3,14,3.9,13
2015/10/8 6:24,3,14,3,14,5.4,13
2015/10/8 6:25,3,14,3,14,5.2,16
2015/10/8 6:26,3,14,3.1,14,4.3,16
2015/10/8 6:27,2.9,14,3,14,4.1,16
2015/10/8 6:28,2.8,14,2.9,14,4.1,16
2015/10/8 6:29,2.8,14,2.8,14,2.9,14
2015/10/8 6:30,2.7,14,2.8,14,2.2,13
2015/10/8 6:31,2.6,14,2.7,14,3.5,16
2015/10/8 6:32,2.4,14,2.6,14,3,16
2015/10/8 6:33,2.3,15,2.4,14,3.9,1
2015/10/8 6:34,2.2,15,2.3,14,4.7,1
2015/10/8 6:35,2.2,16,2.3,14,5.1,1
2015/10/8 6:36,2.1,16,2.2,14,2.7,6
2015/10/8 6:37,2.1,16,2.2,14,3.7,6
2015/10/8 6:38,2.1,16,2.1,14,2.7,1
2015/10/8 6:39,2.2,16,2.2,14,4.3,16
2015/10/8 6:40,2.2,16,2.2,14,3.2,14
2015/10/8 6:41,2.1,16,2.2,14,1.8,15
2015/10/8 6:42,1.9,16,2,14,0.4,15
2015/10/8 6:43,1.7,16,1.9,15,1.6,14
2015/10/8 6:44,1.6,15,1.7,15,1.5,15
2015/10/8 6:45,1.3,14,1.5,16,1,12
2015/10/8 6:46,1.2,14,1.3,16,2.2,9
2015/10/8 6:47,1.1,14,1.2,16,2.6,8
2015/10/8 6:48,1.2,13,1.2,16,2.2,8
2015/10/8 6:49,1.1,12,1.1,16,2.5,8
2015/10/8 6:50,1.1,11,1.1,16,2.9,8
2015/10/8 6:51,1.2,10,1.2,16,3.7,8
2015/10/8 6:52,1.5,9,1.5,16,4.3,9
2015/10/8 6:53,1.7,9,1.7,16,3.5,11
2015/10/8 6:54,1.8,9,1.8,9,2.9,10
2015/10/8 6:55,1.9,9,1.9,9,3.5,13
2015/10/8 6:56,2.1,10,2.1,10,3.1,12
2015/10/8 6:57,2.2,10,2.2,10,3.6,12
2015/10/8 6:58,2.3,10,2.3,10,4.1,12
2015/10/8 6:59,2.3,11,2.3,10,4.5,12
2015/10/8 7:00,2.5,12,2.5,11,5.7,2
2015/10/8 7:01,2.6,12,2.6,12,5.1,1
2015/10/8 7:02,2.4,13,2.6,12,2.1,3
2015/10/8 7:03,2.3,14,2.4,12,2,15
2015/10/8 7:04,2.2,14,2.3,12,1.8,12
2015/10/8 7:05,2,14,2.2,12,1,8
2015/10/8 7:06,1.8,15,2,12,0.9,7
2015/10/8 7:07,1.6,16,1.8,12,0.9,3
2015/10/8 7:08,1.4,1,1.6,12,0.6,3
2015/10/8 7:09,1.2,2,1.4,12,1.1,6
2015/10/8 7:10,0.9,3,1.2,12,0.9,5
2015/10/8 7:11,0.6,4,0.8,12,0.9,12
2015/10/8 7:12,0.6,6,0.6,13,3.1,13
2015/10/8 7:13,0.8,8,0.8,14,3.5,14
2015/10/8 7:14,0.8,8,0.8,14,2.4,11
2015/10/8 7:15,0.9,10,0.9,14,1.9,12
2015/10/8 7:16,1.1,12,1.1,15,4.9,15
2015/10/8 7:17,1.4,13,1.4,16,4.9,15
2015/10/8 7:18,1.7,13,1.7,13,4.8,14
2015/10/8 7:19,2.1,13,2.1,13,5.5,15
2015/10/8 7:20,2.4,14,2.4,14,5,14
2015/10/8 7:21,2.6,14,2.6,14,3.8,15
2015/10/8 7:22,2.7,14,2.7,14,3.6,14
2015/10/8 7:23,2.6,14,2.7,14,2,14
2015/10/8 7:24,2.6,14,2.6,14,2.1,15
2015/10/8 7:25,2.6,15,2.6,14,2.7,1
2015/10/8 7:26,2.5,15,2.6,14,6,15
2015/10/8 7:27,2.6,15,2.6,14,6.9,15
2015/10/8 7:28,2.6,15,2.7,14,4.9,15
2015/10/8 7:29,2.6,15,2.6,14,7.1,15
2015/10/8 7:30,2.5,15,2.6,14,4.8,2
2015/10/8 7:31,2.5,15,2.5,14,5.6,16
2015/10/8 7:32,2.6,15,2.6,14,6.2,15
2015/10/8 7:33,2.7,15,2.7,15,3.6,11
2015/10/8 7:34,2.7,14,2.7,15,3,10
2015/10/8 7:35,3,14,3,14,5.6,13
2015/10/8 7:36,3.2,14,3.2,14,4.7,15
2015/10/8 7:37,3,14,3.1,14,4.1,15
2015/10/8 7:38,3.1,14,3.1,14,6.5,15
2015/10/8 7:39,3.1,14,3.2,14,6.5,16
2015/10/8 7:40,3.2,14,3.2,14,4.8,15
2015/10/8 7:41,3.3,14,3.3,14,6.1,15
2015/10/8 7:42,3.3,14,3.3,14,6,14
2015/10/8 7:43,3.5,14,3.5,14,6,15
2015/10/8 7:44,3.6,15,3.6,15,3.8,14
2015/10/8 7:45,3.6,15,3.6,15,6.9,16
2015/10/8 7:46,3.4,14,3.6,15,4.4,14
2015/10/8 7:47,3.4,15,3.4,15,4.1,15
2015/10/8 7:48,3.2,14,3.4,15,3.8,15
2015/10/8 7:49,3,14,3.2,15,3.9,13
2015/10/8 7:50,2.9,14,3,15,4.3,13
2015/10/8 7:51,2.7,14,2.8,15,3.2,12
2015/10/8 7:52,2.6,13,2.7,15,3.9,9
2015/10/8 7:53,2.5,13,2.6,15,3.7,11
2015/10/8 7:54,2.5,13,2.5,15,3.7,13
2015/10/8 7:55,2.3,13,2.5,15,3.6,12
2015/10/8 7:56,2.4,13,2.4,15,3.3,16
2015/10/8 7:57,2.5,13,2.5,14,5.4,16
2015/10/8 7:58,2.6,13,2.6,14,4.8,15
2015/10/8 7:59,2.7,13,2.7,14,4.4,13
2015/10/8 8:00,2.8,13,2.8,14,4.8,13
2015/10/8 8:01,3,13,3,13,4.8,12
2015/10/8 8:02,3,13,3,13,3.9,12
2015/10/8 8:03,3,13,3,13,3.2,11
2015/10/8 8:04,2.8,13,2.9,13,2.5,14
2015/10/8 8:05,2.7,13,2.8,13,2.9,16
2015/10/8 8:06,2.6,13,2.7,13,2.7,15
2015/10/8 8:07,2.5,13,2.6,13,3.1,15
2015/10/8 8:08,2.3,13,2.5,13,2,1
2015/10/8 8:09,2.1,13,2.3,13,1.8,13
2015/10/8 8:10,1.9,14,2,13,2.1,14
2015/10/8 8:11,1.7,14,1.8,13,3.1,15
2015/10/8 8:12,1.6,14,1.7,13,3.2,16
2015/10/8 8:13,1.5,14,1.6,13,1.6,13
2015/10/8 8:14,1.4,15,1.5,13,2.1,14
2015/10/8 8:15,1.3,15,1.4,13,1.3,16
2015/10/8 8:16,1.3,15,1.3,13,2,1
2015/10/8 8:17,1.2,15,1.3,13,1.6,6
2015/10/8 8:18,1.1,15,1.2,13,0.9,1
2015/10/8 8:19,1.1,15,1.1,13,1.3,9
2015/10/8 8:20,1.1,15,1.1,14,2.6,13
2015/10/8 8:21,1,15,1.1,14,1.8,3
2015/10/8 8:22,0.9,14,1,14,2.4,12
2015/10/8 8:23,1,14,1,14,2.4,10
2015/10/8 8:24,0.9,12,1,15,2.4,12
2015/10/8 8:25,1,12,1,15,1.5,7
2015/10/8 8:26,1,12,1,15,3,10
2015/10/8 8:27,1,12,1,15,2,15
2015/10/8 8:28,1.2,12,1.2,12,3.7,13
2015/10/8 8:29,1.5,13,1.5,13,4.7,14
2015/10/8 8:30,1.5,13,1.5,13,3.3,13
2015/10/8 8:31,1.5,13,1.5,13,3.1,10
2015/10/8 8:32,1.6,14,1.6,13,5,15
2015/10/8 8:33,1.9,14,1.9,14,6.4,14
2015/10/8 8:34,2.1,15,2.1,14,6.8,16
2015/10/8 8:35,2.5,15,2.5,15,6.3,16
2015/10/8 8:36,2.8,15,2.8,15,6.9,1
2015/10/8 8:37,3.2,15,3.2,15,8.1,14
2015/10/8 8:38,3.4,15,3.4,15,6.8,15
2015/10/8 8:39,3.5,15,3.5,15,7.5,15
2015/10/8 8:40,3.8,15,3.8,15,7.5,16
2015/10/8 8:41,4.1,15,4.1,15,6.3,1
2015/10/8 8:42,4.3,15,4.3,15,6.8,14
2015/10/8 8:43,4.3,15,4.3,15,6.8,15
2015/10/8 8:44,4.2,15,4.3,15,6,16
2015/10/8 8:45,4,15,4.2,15,3.6,16
2015/10/8 8:46,3.7,15,4,15,5,15
2015/10/8 8:47,3.4,15,3.7,15,3.2,2
2015/10/8 8:48,3.1,15,3.3,15,2.5,13
2015/10/8 8:49,2.9,15,3.1,15,5.1,13
2015/10/8 8:50,2.7,14,2.9,15,5.5,14
2015/10/8 8:51,2.6,14,2.7,15,4.9,15
2015/10/8 8:52,2.4,15,2.6,15,4.7,15
2015/10/8 8:53,2.3,15,2.4,15,6,14
2015/10/8 8:54,2.2,15,2.3,15,3.2,1
2015/10/8 8:55,2.3,15,2.3,15,3.7,4
2015/10/8 8:56,2.2,15,2.3,15,3.1,4
2015/10/8 8:57,2.2,15,2.2,15,2.4,14
2015/10/8 8:58,2.3,15,2.3,15,2.7,14
2015/10/8 8:59,2.3,15,2.3,15,3.7,14
2015/10/8 9:00,2.1,15,2.2,14,1.9,13
2015/10/8 9:01,2.2,14,2.2,14,6.2,12
2015/10/8 9:02,2.1,14,2.2,15,7.4,15
2015/10/8 9:03,2.1,14,2.1,15,7.2,15
2015/10/8 9:04,2.5,14,2.5,14,8.3,16
2015/10/8 9:05,2.6,14,2.6,14,6.8,16
2015/10/8 9:06,2.8,14,2.8,14,6.8,16
2015/10/8 9:07,3.2,14,3.2,14,8.4,15
2015/10/8 9:08,3.4,14,3.4,14,8.3,15
2015/10/8 9:09,3.7,14,3.7,14,8.2,15
2015/10/8 9:10,4.3,15,4.3,15,9.8,15
2015/10/8 9:11,4.6,15,4.6,15,10.5,16
2015/10/8 9:12,4.8,15,4.8,15,7.2,1
2015/10/8 9:13,4.6,16,4.7,15,3.5,2
2015/10/8 9:14,4.2,16,4.6,15,3.2,3
2015/10/8 9:15,3.9,16,4.2,15,1.5,1
2015/10/8 9:16,3.8,16,3.8,15,4.7,14
2015/10/8 9:17,3.7,16,3.8,15,7.9,16
2015/10/8 9:18,3.8,16,3.8,15,6.7,15
2015/10/8 9:19,3.8,16,3.8,15,8.6,16
2015/10/8 9:20,3.6,16,3.9,15,9,16
2015/10/8 9:21,3.3,16,3.6,15,5.6,15
2015/10/8 9:22,3.5,16,3.5,15,7.9,16
2015/10/8 9:23,3.5,15,3.5,16,6.5,15
2015/10/8 9:24,3.8,15,3.8,16,9,15
2015/10/8 9:25,4.1,15,4.1,15,5.4,14
2015/10/8 9:26,4,15,4.1,15,3.5,1
2015/10/8 9:27,3.9,15,4,15,6.9,15
2015/10/8 9:28,3.8,15,3.9,15,5.4,16
2015/10/8 9:29,3.6,15,3.8,15,6.1,15
2015/10/8 9:30,3.4,15,3.5,15,6.1,15
2015/10/8 9:31,3.3,15,3.4,15,4.5,15
2015/10/8 9:32,3.1,15,3.3,15,6,15
2015/10/8 9:33,3,15,3.1,15,4.3,16
2015/10/8 9:34,2.8,15,3,15,4.9,16
2015/10/8 9:35,2.7,15,2.8,15,4.1,16
2015/10/8 9:36,2.9,15,2.9,15,6,16
2015/10/8 9:37,2.9,15,2.9,15,5.8,15
2015/10/8 9:38,2.8,15,2.9,15,5.2,14
2015/10/8 9:39,2.7,15,2.8,15,4.4,15
2015/10/8 9:40,2.7,15,2.7,15,6.5,15
2015/10/8 9:41,2.6,15,2.7,15,5,15
2015/10/8 9:42,2.5,15,2.6,15,2.9,16
2015/10/8 9:43,2.4,15,2.5,15,6.2,15
2015/10/8 9:44,2.4,15,2.5,15,4.3,13
2015/10/8 9:45,2.3,16,2.3,15,1.8,4
2015/10/8 9:46,2,16,2.3,15,0.9,3
2015/10/8 9:47,1.8,16,2,15,4.1,1
2015/10/8 9:48,1.8,16,1.8,15,5,15
2015/10/8 9:49,1.9,16,1.9,15,4.7,16
2015/10/8 9:50,1.9,16,2,15,4.5,16
2015/10/8 9:51,1.9,16,1.9,15,2.7,16
2015/10/8 9:52,1.9,16,1.9,15,3.6,3
2015/10/8 9:53,1.9,1,1.9,15,2.6,3
2015/10/8 9:54,1.8,1,1.9,15,1.1,3
2015/10/8 9:55,1.8,1,1.8,16,1.1,10
2015/10/8 9:56,1.8,16,1.8,16,1.1,11
2015/10/8 9:57,1.7,16,1.8,16,2.6,2
2015/10/8 9:58,1.6,16,1.7,16,2.4,12
2015/10/8 9:59,1.4,16,1.6,16,2,11
2015/10/8 10:00,1.4,15,1.4,16,4.4,16
2015/10/8 10:01,1.4,15,1.4,16,4.1,15
2015/10/8 10:02,1.4,16,1.5,16,3.6,3
2015/10/8 10:03,1.4,16,1.4,1,2.5,3
2015/10/8 10:04,1.6,16,1.6,1,3.7,3
2015/10/8 10:05,1.7,1,1.7,1,3.9,5
2015/10/8 10:06,2,2,2,2,4.7,5
2015/10/8 10:07,2.1,3,2.1,3,3.3,8
2015/10/8 10:08,2.1,4,2.1,3,3.2,8
2015/10/8 10:09,2.1,4,2.1,3,2,8
2015/10/8 10:10,2,5,2.1,3,2.6,8
2015/10/8 10:11,1.9,6,2,3,2.2,8
2015/10/8 10:12,1.9,6,1.9,3,3.1,8
2015/10/8 10:13,1.9,7,1.9,3,3.2,11
2015/10/8 10:14,1.8,8,1.9,3,3,11
2015/10/8 10:15,1.6,8,1.7,3,1.6,8
2015/10/8 10:16,1.4,8,1.6,3,2.2,8
2015/10/8 10:17,1.4,8,1.4,3,3.1,8
2015/10/8 10:18,1.4,8,1.4,4,2.6,8
2015/10/8 10:19,1.4,8,1.4,4,2.4,6
2015/10/8 10:20,1.5,8,1.5,5,2.7,8
2015/10/8 10:21,1.6,8,1.6,6,3.8,7
2015/10/8 10:22,1.6,8,1.6,6,2.2,7
2015/10/8 10:23,1.5,8,1.6,7,2.7,5
2015/10/8 10:24,1.5,7,1.6,8,2.6,5
2015/10/8 10:25,1.5,7,1.5,8,1.1,15
2015/10/8 10:26,1.5,8,1.5,8,1.5,10
2015/10/8 10:27,1.4,8,1.5,8,2.5,12
2015/10/8 10:28,1.4,9,1.4,8,2.7,13
2015/10/8 10:29,1.5,9,1.5,8,4.5,13
2015/10/8 10:30,1.6,10,1.6,8,4.8,12
2015/10/8 10:31,1.7,11,1.7,11,6.2,12
2015/10/8 10:32,2.1,12,2.1,12,9.8,14
2015/10/8 10:33,2.7,13,2.7,13,10.9,15
2015/10/8 10:34,3.2,13,3.2,13,9.7,13
2015/10/8 10:35,3.7,13,3.7,13,8.7,15
2015/10/8 10:36,4,14,4,14,5.6,14
2015/10/8 10:37,4.3,14,4.3,14,6.4,14
2015/10/8 10:38,4.6,14,4.6,14,6.4,15
2015/10/8 10:39,4.5,15,4.6,14,4.5,14
2015/10/8 10:40,4.6,15,4.6,14,6.7,15
2015/10/8 10:41,4.6,15,4.7,15,6,14
2015/10/8 10:42,4.5,15,4.6,15,8.1,15
2015/10/8 10:43,4.4,15,4.4,15,9.8,15
2015/10/8 10:44,4.2,15,4.4,15,7,16
2015/10/8 10:45,3.9,15,4.2,15,7,15
2015/10/8 10:46,3.8,15,3.9,15,5,16
2015/10/8 10:47,3.7,15,3.8,15,5.1,16
2015/10/8 10:48,3.8,15,3.8,15,7.1,16
2015/10/8 10:49,3.9,15,3.9,15,5.1,15
2015/10/8 10:50,3.8,15,3.9,15,6,16
2015/10/8 10:51,3.8,15,3.8,15,7.8,15
2015/10/8 10:52,3.8,15,3.9,15,6.5,14
2015/10/8 10:53,3.5,15,3.8,15,3.9,15
2015/10/8 10:54,3.4,15,3.5,15,9.3,16
2015/10/8 10:55,3.5,15,3.5,15,7.5,14
2015/10/8 10:56,3.7,15,3.7,15,7.4,15
2015/10/8 10:57,3.9,15,3.9,15,7.4,16
2015/10/8 10:58,3.9,15,3.9,15,9.1,15
2015/10/8 10:59,4,15,4,15,8.1,16
2015/10/8 11:00,4.2,15,4.3,15,8.1,16
2015/10/8 11:01,4.5,16,4.5,16,8.1,16
2015/10/8 11:02,4.4,16,4.5,16,7.2,16
2015/10/8 11:03,4.6,16,4.6,16,8.5,15
2015/10/8 11:04,4.5,16,4.6,16,5.6,1
2015/10/8 11:05,4.6,16,4.6,16,6.5,16